Weather History for Meeker, CO

Change the Weather History Date:

Friday, March 22, 2013

  Actual Average Record
Temperature  
Mean Temperature 27 °F 37 °F  
Max Temperature 35 °F 50 °F 71 °F (2004)
Min Temperature 18 °F 24 °F 18 °F (2013)
Degree Days  
Heating Degree Days 38 28  
Month to date heating degree days 687 688  
Since 1 July heating degree days 6699 6493  
Cooling Degree Days 0 0  
Month to date cooling degree days 0 0  
Year to date cooling degree days 0 0  
Moisture  
Dew Point 18 °F    
Average Humidity 63    
Maximum Humidity 88    
Minimum Humidity 38    
Precipitation  
Precipitation 0.04 in 0.04 in 0.30 in (2014)
Month to date precipitation 0.41 0.79  
Year to date precipitation 1.45 2.68  
Sea Level Pressure  
Sea Level Pressure 29.82 in    
Wind  
Wind Speed 5 mph (NNW)    
Max Wind Speed 17 mph    
Max Gust Speed 25 mph    
Visibility 5 miles    
Events Fog , Snow    
T = Trace of Precipitation, MM = Missing Value Source: NWS Daily Summary

Daily Weather History Graph

Daily Weather History Graph

Search for Another Location

Airport:

Trip Planner

Search our weather history database for the weather conditions in past years. The results will help you decide how hot, cold, wet, or windy it might be!

Date:

Astronomy

Mar. 22, 2013 Rise Set
Actual Time 7:11 AM MDT 7:25 PM MDT
Civil Twilight 6:44 AM MDT 7:53 PM MDT
Nautical Twilight 6:12 AM MDT 8:24 PM MDT
Astronomical Twilight 5:40 AM MDT 8:57 PM MDT
Moon 2:56 PM MDT (3/22) 4:13 AM MDT (3/22)
Length of Visible Light 13h 08m
Length of Day
12h 14m
Waxing Gibbous, 78% of the Moon is Illuminated
Mar 22
Waxing Gibbous
Mar 27
Full
Apr 2
Last Quarter
Apr 10
New
Apr 18
First Quarter

Hourly Weather History & Observations

Time (MDT) Temp. Windchill Dew Point Humidity Pressure Visibility Wind Dir Wind Speed Gust Speed Precip Events Conditions
12:53 AM 24.1 °F 16.0 °F 16.0 °F 71% 29.96 in 10.0 mi East 6.9 mph - N/A   Clear
1:53 AM 23.0 °F 17.0 °F 15.1 °F 72% 29.94 in 10.0 mi East 4.6 mph - N/A   Clear
2:53 AM 23.0 °F 18.4 °F 15.1 °F 72% 29.91 in 10.0 mi ENE 3.5 mph - N/A   Clear
3:53 AM 21.9 °F 17.2 °F 14.0 °F 72% 29.91 in 10.0 mi East 3.5 mph - N/A   Clear
4:53 AM 21.0 °F 13.4 °F 12.9 °F 71% 29.90 in 10.0 mi ESE 5.8 mph - N/A   Clear
5:53 AM 19.9 °F 13.4 °F 12.9 °F 74% 29.88 in 10.0 mi ENE 4.6 mph - N/A   Clear
6:53 AM 18.0 °F - 14.0 °F 84% 29.89 in 10.0 mi Calm Calm - N/A   Clear
7:53 AM 19.9 °F 14.9 °F 12.9 °F 74% 29.90 in 10.0 mi Variable 3.5 mph - N/A   Clear
8:53 AM 21.0 °F - 14.0 °F 74% 29.89 in 10.0 mi Calm Calm - N/A   Clear
9:53 AM 27.0 °F - 12.9 °F 56% 29.85 in 10.0 mi Calm Calm - N/A   Clear
10:53 AM 30.9 °F 24.3 °F 10.9 °F 43% 29.82 in 10.0 mi WSW 6.9 mph - N/A   Overcast
11:53 AM 35.1 °F 26.9 °F 12.9 °F 40% 29.80 in 10.0 mi West 11.5 mph - N/A   Overcast
12:15 PM 33.8 °F 24.3 °F 12.2 °F 41% 29.76 in 10.0 mi NNW 13.8 mph 21.9 mph N/A   Overcast
12:53 PM 33.1 °F 24.4 °F 14.0 °F 46% 29.79 in 10.0 mi NW 11.5 mph - N/A   Overcast
1:53 PM 34.0 °F - 14.0 °F 44% 29.76 in 10.0 mi Calm Calm - N/A   Overcast
2:53 PM 30.0 °F 20.5 °F 18.0 °F 61% 29.79 in 5.0 mi WNW 11.5 mph - 0.00 in Snow Light Snow
3:53 PM 30.9 °F 21.7 °F 17.1 °F 57% 29.80 in 10.0 mi North 11.5 mph - 0.00 in   Overcast
4:53 PM 28.0 °F 24.2 °F 19.0 °F 69% 29.82 in 10.0 mi West 3.5 mph - 0.00 in   Overcast
5:28 PM 26.6 °F - 19.4 °F 74% 29.76 in 2.5 mi Calm Calm - 0.00 in Snow Light Snow
5:35 PM 26.6 °F - 21.2 °F 80% 29.76 in 1.0 mi Calm Calm - 0.00 in Snow Light Snow
5:45 PM 26.6 °F - 21.2 °F 80% 29.76 in 1.8 mi Calm Calm - 0.00 in Snow Light Snow
5:51 PM 26.6 °F - 21.2 °F 80% 29.76 in 3.0 mi Calm Calm - 0.00 in Snow Light Snow
5:52 PM 26.1 °F - 21.9 °F 84% 29.85 in 3.0 mi Calm Calm - 0.00 in Snow Light Snow
6:02 PM 26.6 °F - 21.2 °F 80% 29.76 in 4.0 mi Calm Calm - 0.00 in Snow Light Snow
6:15 PM 26.6 °F 20.0 °F 23.0 °F 86% 29.77 in 2.0 mi SW 5.8 mph - 0.00 in Snow Light Snow
6:21 PM 26.6 °F 22.6 °F 23.0 °F 86% 29.76 in 1.0 mi SW 3.5 mph - 0.00 in Snow Light Snow
6:24 PM 26.6 °F - 23.0 °F 86% 29.77 in 0.8 mi Calm Calm - 0.00 in Snow Light Snow
6:46 PM 24.8 °F 17.9 °F 21.2 °F 86% 29.77 in 0.5 mi NE 5.8 mph - 0.01 in Fog , Snow Light Snow
6:53 PM 25.0 °F 20.7 °F 21.0 °F 85% 29.87 in 0.8 mi ENE 3.5 mph - 0.01 in Snow Light Snow
6:55 PM 24.8 °F - 21.2 °F 86% 29.77 in 1.2 mi Calm Calm - 0.00 in Snow Light Snow
7:00 PM 24.8 °F 16.9 °F 19.4 °F 80% 29.77 in 3.0 mi NE 6.9 mph - 0.00 in Snow Light Snow
7:26 PM 24.8 °F 20.5 °F 17.6 °F 74% 29.78 in 10.0 mi NNE 3.5 mph - 0.00 in   Overcast
7:34 PM 26.6 °F - 17.6 °F 69% 29.78 in 10.0 mi Calm Calm - 0.00 in   Overcast
7:45 PM 24.8 °F 19.1 °F 19.4 °F 80% 29.79 in 1.8 mi West 4.6 mph - 0.00 in Snow Light Snow
7:49 PM 24.8 °F - 21.2 °F 86% 29.79 in 1.0 mi Calm Calm - 0.00 in Snow Light Snow
7:53 PM 24.1 °F 15.2 °F 21.0 °F 88% 29.89 in 0.8 mi NW 8.1 mph - 0.01 in Snow Light Snow
8:03 PM 24.8 °F 15.3 °F 19.4 °F 80% 29.79 in 1.0 mi NNE 9.2 mph - 0.00 in Snow Light Snow
8:12 PM 23.0 °F 15.8 °F 19.4 °F 86% 29.80 in 1.8 mi NE 5.8 mph - 0.00 in Snow Light Snow
8:16 PM 23.0 °F 17.0 °F 19.4 °F 86% 29.79 in 3.0 mi ENE 4.6 mph - 0.00 in Snow Light Snow
8:25 PM 23.0 °F - 19.4 °F 86% 29.79 in 9.0 mi Calm Calm - 0.00 in   Overcast
8:53 PM 21.9 °F - 17.1 °F 82% 29.91 in 10.0 mi Calm Calm - 0.00 in   Overcast
9:40 PM 24.8 °F 20.5 °F 19.4 °F 80% 29.83 in 4.0 mi West 3.5 mph - 0.00 in Snow Light Snow
9:51 PM 23.0 °F 17.0 °F 19.4 °F 86% 29.83 in 2.0 mi WNW 4.6 mph - 0.00 in Snow Light Snow
9:53 PM 23.0 °F 18.4 °F 19.0 °F 85% 29.91 in 1.8 mi West 3.5 mph - 0.00 in Snow Light Snow
10:31 PM 21.2 °F 13.6 °F 17.6 °F 86% 29.82 in 0.8 mi NW 5.8 mph - 0.01 in Snow Light Snow
10:44 PM 21.2 °F 14.9 °F 17.6 °F 86% 29.82 in 1.0 mi WNW 4.6 mph - 0.01 in Snow Light Snow
10:51 PM 21.2 °F 13.6 °F 17.6 °F 86% 29.81 in 1.8 mi NW 5.8 mph - 0.01 in Snow Light Snow
10:53 PM 21.9 °F 12.5 °F 18.0 °F 85% 29.87 in 2.0 mi NW 8.1 mph - 0.01 in Snow Light Snow
11:00 PM 21.2 °F 10.1 °F 17.6 °F 86% 29.82 in 2.5 mi NW 10.4 mph - 0.00 in Snow Light Snow
11:12 PM 21.2 °F 10.1 °F 15.8 °F 80% 29.82 in 1.5 mi NW 10.4 mph - 0.01 in Snow Light Snow
11:21 PM 21.2 °F 8.3 °F 15.8 °F 80% 29.83 in 3.0 mi NW 13.8 mph - 0.01 in Snow Light Snow
11:53 PM 19.9 °F 12.1 °F 14.0 °F 78% 29.88 in 6.0 mi NW 5.8 mph - 0.01 in Snow Light Snow